Location: Newark
(43.0000°N, 1.6781°W)
Time: 10:32:43
(UTC+00:00)

Courier 1B Rocket - Visible Passes

Search period start: 07 October 2022 00:00
Search period end: 17 October 2022 00:00
Orbit: 920 x 1202 km, 28.2° (Epoch: 06 October)

Date Brightness Start Highest point End Pass type
(mag) Time Alt. Az. Time Alt. Az. Time Alt. Az.
07 Oct 6.6 19:05:06 10° SW 19:10:12 22° S 19:13:22 16° SE visible
07 Oct 7.3 20:58:47 10° SW 20:59:44 12° SW 20:59:44 12° SW visible
08 Oct 6.7 18:04:05 10° SW 18:09:22 23° S 18:14:24 10° SE visible
08 Oct 6.6 19:57:15 10° SW 20:01:51 19° SSW 20:02:26 19° S visible
09 Oct 6.7 18:55:56 10° SW 19:01:04 22° S 19:05:09 13° SE visible
09 Oct 7.3 20:50:33 10° SW 20:51:31 12° SW 20:51:31 12° SW visible
10 Oct 6.8 17:54:44 10° SW 18:00:14 24° S 18:05:27 10° SE visible
10 Oct 6.8 19:48:31 10° SW 19:52:40 17° SSW 19:54:15 16° S visible
11 Oct 6.9 18:46:55 10° WSW 18:51:54 20° SSW 18:56:39 10° SSE visible
12 Oct 7.1 19:40:10 10° SW 19:43:27 14° SSW 19:46:13 11° S visible
13 Oct 7.2 18:38:08 10° WSW 18:42:41 18° SSW 18:47:05 10° SSE visible
14 Oct 7.5 19:33:13 10° SW 19:34:10 10° SSW 19:35:05 10° SSW visible
15 Oct 7.4 18:29:41 10° SW 18:33:26 15° SSW 18:37:02 10° S visible
